| time (UTC) | temp F | wind direction | speed MPH | gust MPH | rain 1hr in | rain 24hr in | rain mn in | humidity % | barometer mb |
| 20260508144551 | 51 | 263 | 7.0 | 12.0 | 0.00 | 0.00 | 0.00 | 51 | 1011.3 |
| 20260508143054 | 52 | 325 | 5.0 | 14.0 | 0.00 | 0.00 | 0.00 | 56 | 1011.4 |
| 20260508141558 | 51 | 205 | 5.0 | 10.0 | 0.00 | 0.00 | 0.00 | 58 | 1011.3 |
| 20260508140056 | 50 | 225 | 2.0 | 10.0 | 0.00 | 0.00 | 0.00 | 61 | 1011.3 |
| 20260508134548 | 49 | 242 | 2.0 | 8.0 | 0.00 | 0.00 | 0.00 | 64 | 1011.1 |
| 20260508133051 | 48 | 211 | 1.0 | 9.0 | 0.00 | 0.00 | 0.00 | 67 | 1011.3 |
| 20260508131557 | 47 | 240 | 1.0 | 4.0 | 0.00 | 0.00 | 0.00 | 67 | 1011.4 |
| 20260508130049 | 47 | 238 | 3.0 | 8.0 | 0.00 | 0.00 | 0.00 | 72 | 1011.5 |
| 20260508124548 | 46 | 200 | 4.0 | 8.0 | 0.00 | 0.00 | 0.00 | 74 | 1011.6 |
| 20260508123048 | 45 | 274 | 2.0 | 8.0 | 0.00 | 0.00 | 0.00 | 75 | 1011.9 |
| 20260508121557 | 45 | 240 | 2.0 | 6.0 | 0.00 | 0.00 | 0.00 | 78 | 1012.0 |
| 20260508120057 | 44 | 0 | 2.0 | 6.0 | 0.00 | 0.00 | 0.00 | 80 | 1011.9 |
| 20260508114550 | 44 | 0 | 1.0 | 6.0 | 0.00 | 0.00 | 0.00 | 82 | 1012.0 |
| 20260508113055 | 43 | 192 | 0.0 | 4.0 | 0.00 | 0.00 | 0.00 | 83 | 1011.7 |
| 20260508111557 | 42 | 0 | 1.0 | 3.0 | 0.00 | 0.00 | 0.00 | 83 | 1011.6 |
| 20260508110058 | 42 | 0 | 2.0 | 4.0 | 0.00 | 0.00 | 0.00 | 85 | 1011.4 |
| 20260508104548 | 41 | 103 | 2.0 | 8.0 | 0.00 | 0.00 | 0.00 | 86 | 1011.4 |
| 20260508103114 | 40 | 109 | 2.0 | 4.0 | 0.00 | 0.00 | 0.00 | 85 | 1011.4 |
| 20260508101605 | 40 | 0 | 0.0 | 0.0 | 0.00 | 0.00 | 0.00 | 84 | 1011.1 |
| 20260508100057 | 40 | 0 | 0.0 | 2.0 | 0.00 | 0.00 | 0.00 | 83 | 1010.9 |
| 20260508094607 | 41 | 132 | 0.0 | 2.0 | 0.00 | 0.00 | 0.00 | 81 | 1010.8 |
| 20260508093053 | 42 | 0 | 0.0 | 3.0 | 0.00 | 0.00 | 0.00 | 80 | 1010.8 |
| 20260508091556 | 42 | 202 | 1.0 | 2.0 | 0.00 | 0.00 | 0.00 | 78 | 1010.5 |
| 20260508084552 | 44 | 0 | 0.0 | 3.0 | 0.00 | 0.00 | 0.00 | 74 | 1010.6 |
| 20260508083111 | 44 | 0 | 0.0 | 4.0 | 0.00 | 0.00 | 0.00 | 73 | 1010.6 |
| 20260508081552 | 45 | 240 | 1.0 | 5.0 | 0.00 | 0.00 | 0.00 | 71 | 1010.6 |
| 20260508080050 | 45 | 247 | 3.0 | 10.0 | 0.00 | 0.00 | 0.00 | 69 | 1010.5 |
| 20260508074552 | 45 | 262 | 2.0 | 5.0 | 0.00 | 0.00 | 0.00 | 67 | 1010.5 |
| 20260508073053 | 46 | 0 | 1.0 | 3.0 | 0.00 | 0.00 | 0.00 | 64 | 1010.7 |
| 20260508071548 | 46 | 278 | 1.0 | 3.0 | 0.00 | 0.00 | 0.00 | 62 | 1010.7 |
| 20260508070055 | 46 | 0 | 1.0 | 3.0 | 0.00 | 0.00 | 0.00 | 62 | 1010.4 |
| 20260508064556 | 46 | 278 | 0.0 | 9.0 | 0.00 | 0.02 | 0.00 | 59 | 1010.4 |
| 20260508063050 | 46 | 282 | 5.0 | 13.0 | 0.00 | 0.02 | 0.00 | 56 | 1010.7 |
| 20260508061555 | 46 | 263 | 3.0 | 7.0 | 0.00 | 0.02 | 0.00 | 52 | 1010.8 |
| 20260508060052 | 46 | 286 | 2.0 | 6.0 | 0.00 | 0.02 | 0.00 | 53 | 1010.5 |
| 20260508054600 | 47 | 269 | 2.0 | 4.0 | 0.00 | 0.02 | 0.00 | 52 | 1009.9 |
| 20260508053055 | 47 | 0 | 0.0 | 8.0 | 0.00 | 0.02 | 0.00 | 44 | 1009.4 |
| 20260508051552 | 47 | 327 | 3.0 | 8.0 | 0.00 | 0.02 | 0.00 | 43 | 1009.4 |
| 20260508050053 | 48 | 0 | 1.0 | 4.0 | 0.00 | 0.02 | 0.00 | 43 | 1009.5 |
| 20260508044549 | 48 | 14 | 2.0 | 9.0 | 0.00 | 0.02 | 0.00 | 43 | 1009.5 |
| 20260508043051 | 48 | 24 | 3.0 | 8.0 | 0.00 | 0.02 | 0.00 | 44 | 1009.5 |
| 20260508041550 | 48 | 360 | 3.0 | 9.0 | 0.00 | 0.02 | 0.00 | 45 | 1009.4 |
| 20260508040052 | 48 | 355 | 2.0 | 8.0 | 0.00 | 0.02 | 0.00 | 46 | 1009.3 |
| 20260508034555 | 47 | 360 | 2.0 | 6.0 | 0.00 | 0.02 | 0.02 | 46 | 1009.3 |
| 20260508033055 | 47 | 84 | 2.0 | 6.0 | 0.00 | 0.02 | 0.02 | 46 | 1009.4 |
| 20260508031548 | 48 | 47 | 2.0 | 5.0 | 0.00 | 0.02 | 0.02 | 46 | 1009.5 |
| 20260508030054 | 48 | 17 | 1.0 | 4.0 | 0.00 | 0.02 | 0.02 | 46 | 1009.6 |
| 20260508024550 | 48 | 34 | 1.0 | 5.0 | 0.00 | 0.02 | 0.02 | 47 | 1009.7 |
| 20260508023051 | 48 | 49 | 1.0 | 4.0 | 0.00 | 0.02 | 0.02 | 48 | 1009.6 |
| 20260508021553 | 48 | 26 | 1.0 | 3.0 | 0.00 | 0.02 | 0.02 | 49 | 1009.6 |
| 20260508020049 | 47 | 0 | 0.0 | 2.0 | 0.00 | 0.02 | 0.02 | 53 | 1009.6 |
| 20260508014554 | 47 | 51 | 1.0 | 3.0 | 0.00 | 0.02 | 0.02 | 55 | 1009.5 |
| 20260508013049 | 47 | 59 | 2.0 | 3.0 | 0.00 | 0.02 | 0.02 | 56 | 1009.5 |
| 20260508011548 | 48 | 59 | 2.0 | 3.0 | 0.00 | 0.02 | 0.02 | 56 | 1009.3 |
| 20260508010056 | 47 | 59 | 2.0 | 4.0 | 0.00 | 0.02 | 0.02 | 56 | 1009.0 |
| 20260508004549 | 48 | 15 | 1.0 | 3.0 | 0.00 | 0.02 | 0.02 | 53 | 1008.9 |
| 20260508003059 | 49 | 15 | 0.0 | 3.0 | 0.00 | 0.02 | 0.02 | 55 | 1008.5 |
| 20260508001558 | 51 | 15 | 1.0 | 3.0 | 0.00 | 0.02 | 0.02 | 52 | 1008.2 |
| 20260508000100 | 53 | 0 | 0.0 | 2.0 | 0.00 | 0.02 | 0.02 | 48 | 1008.3 |
| 20260507234548 | 54 | 334 | 0.0 | 3.0 | 0.00 | 0.02 | 0.02 | 43 | 1008.4 |
| 20260507233052 | 55 | 312 | 1.0 | 4.0 | 0.00 | 0.02 | 0.02 | 41 | 1008.2 |
| 20260507231549 | 55 | 0 | 2.0 | 6.0 | 0.00 | 0.02 | 0.02 | 41 | 1008.2 |
| 20260507230049 | 56 | 333 | 4.0 | 10.0 | 0.00 | 0.02 | 0.02 | 37 | 1008.0 |
| 20260507224611 | 57 | 5 | 5.0 | 12.0 | 0.00 | 0.02 | 0.02 | 37 | 1007.9 |
| 20260507223055 | 58 | 327 | 5.0 | 13.0 | 0.00 | 0.02 | 0.02 | 35 | 1007.9 |
| 20260507221553 | 56 | 256 | 5.0 | 14.0 | 0.00 | 0.02 | 0.02 | 38 | 1008.0 |
| 20260507220050 | 57 | 333 | 6.0 | 13.0 | 0.00 | 0.02 | 0.02 | 38 | 1008.1 |
| 20260507214554 | 57 | 275 | 7.0 | 15.0 | 0.00 | 0.02 | 0.02 | 38 | 1008.0 |
| 20260507213049 | 58 | 271 | 4.0 | 14.0 | 0.00 | 0.02 | 0.02 | 39 | 1007.7 |
| 20260507211615 | 60 | 323 | 6.0 | 12.0 | 0.00 | 0.02 | 0.02 | 34 | 1007.6 |
| 20260507210054 | 61 | 284 | 6.0 | 13.0 | 0.00 | 0.02 | 0.02 | 34 | 1007.7 |
| 20260507204549 | 62 | 260 | 4.0 | 11.0 | 0.00 | 0.04 | 0.02 | 37 | 1007.5 |
| 20260507203050 | 61 | 330 | 7.0 | 14.0 | 0.00 | 0.04 | 0.02 | 36 | 1007.4 |
| 20260507201607 | 61 | 235 | 6.0 | 13.0 | 0.00 | 0.04 | 0.02 | 32 | 1007.4 |
| 20260507200100 | 62 | 281 | 8.0 | 15.0 | 0.00 | 0.04 | 0.02 | 32 | 1007.5 |
| 20260507194554 | 61 | 242 | 3.0 | 13.0 | 0.00 | 0.07 | 0.02 | 34 | 1007.7 |
| 20260507193044 | 60 | 251 | 4.0 | 18.0 | 0.00 | 0.07 | 0.02 | 36 | 1007.9 |
| 20260507191552 | 60 | 10 | 4.0 | 15.0 | 0.00 | 0.07 | 0.02 | 38 | 1007.9 |
| 20260507190057 | 59 | 348 | 5.0 | 14.0 | 0.00 | 0.07 | 0.02 | 46 | 1008.2 |
| 20260507184548 | 59 | 10 | 3.0 | 13.0 | 0.00 | 0.15 | 0.02 | 40 | 1008.2 |
| 20260507183051 | 58 | 107 | 3.0 | 14.0 | 0.00 | 0.15 | 0.02 | 36 | 1008.4 |
| 20260507181551 | 58 | 258 | 4.0 | 13.0 | 0.00 | 0.15 | 0.02 | 35 | 1008.7 |
| 20260507180050 | 58 | 63 | 5.0 | 13.0 | 0.00 | 0.15 | 0.02 | 39 | 1008.8 |
| 20260507174550 | 57 | 248 | 4.0 | 12.0 | 0.00 | 0.23 | 0.02 | 38 | 1009.0 |
| 20260507173055 | 57 | 303 | 5.0 | 14.0 | 0.00 | 0.23 | 0.02 | 40 | 1009.2 |
| 20260507171551 | 56 | 241 | 5.0 | 12.0 | 0.00 | 0.23 | 0.02 | 38 | 1009.3 |
| 20260507170051 | 56 | 38 | 5.0 | 12.0 | 0.00 | 0.23 | 0.02 | 39 | 1009.5 |
| 20260507164549 | 55 | 9 | 4.0 | 10.0 | 0.00 | 0.31 | 0.02 | 41 | 1009.5 |
| 20260507163049 | 55 | 23 | 4.0 | 12.0 | 0.00 | 0.31 | 0.02 | 40 | 1009.7 |
| 20260507161552 | 55 | 340 | 7.0 | 17.0 | 0.00 | 0.31 | 0.02 | 44 | 1009.9 |
| 20260507160047 | 54 | 330 | 5.0 | 12.0 | 0.00 | 0.31 | 0.02 | 45 | 1010.3 |
| 20260507154558 | 53 | 338 | 5.0 | 11.0 | 0.00 | 0.31 | 0.02 | 45 | 1010.4 |
| 20260507153053 | 53 | 11 | 6.0 | 13.0 | 0.00 | 0.31 | 0.02 | 43 | 1010.7 |
| 20260507151559 | 52 | 296 | 1.0 | 7.0 | 0.00 | 0.31 | 0.02 | 44 | 1010.7 |
| 20260507150056 | 51 | 85 | 6.0 | 11.0 | 0.00 | 0.31 | 0.02 | 46 | 1010.8 |